Theta_e
346 348 349 349 350 349 349 349 350 350 350 350 350 350 350 351 351 351 352 352 353 353 353 353 352 352 352 351 350 348 348 347 347 345 342 341 340 339 339 338 337 337 338 337 337 338 337 336 335 336 337 336 337 336 336 336 336 335 334 334 332 332 331 329 327 327 331 332 332 336 337 337 339 339 339 339 340 340 340 343 343 341 342 342 342
346 347 349 349 349 349 349 350 350 350 350 350 350 350 351 351 351 352 351 352 353 352 352 352 352 351 351 350 350 348 347 347 346 345 342 341 340 339 339 338 338 337 337 336 337 337 337 336 335 336 336 337 336 336 336 335 335 334 335 335 334 333 333 329 327 328 326 331 333 333 335 337 337 339 338 339 339 340 340 340 339 339 340 341 340
346 348 348 349 349 350 350 350 350 350 350 350 349 350 351 351 352 351 351 351 352 352 352 352 351 351 350 350 349 348 347 346 346 344 343 341 340 339 339 338 337 337 336 336 336 337 336 336 336 336 336 335 336 336 336 336 336 336 335 335 335 334 333 332 330 326 327 331 333 334 335 336 336 339 338 338 339 338 338 338 338 338 339 339 339
346 347 348 348 349 350 350 350 350 350 349 350 350 350 351 351 352 352 352 351 351 352 352 351 351 350 349 349 349 348 347 346 345 344 343 342 341 340 339 338 337 337 337 336 336 336 336 336 335 336 336 335 335 335 335 336 336 336 335 336 335 334 334 334 333 333 332 331 333 334 336 335 336 337 337 337 337 339 338 338 338 338 339 339 339
346 347 347 347 348 349 349 350 350 350 350 350 350 351 351 351 352 352 352 351 351 351 351 351 350 349 348 348 348 347 347 346 345 344 343 343 342 341 340 338 338 337 337 337 337 336 335 335 336 336 336 335 335 334 334 334 335 336 335 335 335 334 335 335 335 335 333 331 332 333 334 335 336 337 337 336 337 338 338 337 336 336 337 337 337
347 347 347 347 348 348 348 349 349 350 350 350 351 351 352 352 352 352 352 351 351 351 351 350 350 349 348 348 348 348 347 347 346 344 343 342 342 341 340 339 338 338 337 337 337 337 335 336 336 336 335 334 333 333 334 334 335 335 335 335 335 336 336 335 336 335 334 333 333 333 333 333 336 336 337 337 336 335 335 335 336 336 336 336 336
347 347 347 347 348 348 348 349 349 350 351 351 352 352 352 352 352 352 352 352 351 350 350 350 350 350 349 349 348 348 347 347 346 346 344 343 342 341 340 339 338 338 337 338 337 337 337 336 336 336 334 334 334 334 334 334 335 335 335 334 335 336 335 334 334 333 333 332 332 332 332 333 332 333 335 336 336 334 333 333 333 337 336 335 334
347 347 347 347 348 348 349 350 350 350 351 352 352 352 352 353 353 353 353 352 351 351 350 350 350 350 349 349 348 348 347 346 346 346 345 344 342 341 340 339 338 337 338 338 337 337 337 337 336 335 335 335 336 335 335 333 335 335 337 335 334 334 334 333 332 332 332 331 331 331 331 332 332 332 334 334 333 332 331 330 327 330 333 336 336
346 347 347 347 348 349 350 351 351 351 351 352 352 352 352 353 353 353 353 352 352 352 351 351 350 349 349 349 348 348 347 346 346 346 345 344 343 341 340 339 338 337 337 337 337 337 337 337 337 336 337 338 339 337 338 337 335 334 336 337 335 334 333 333 332 332 332 331 331 331 330 330 331 331 330 330 330 328 328 327 327 330 332 330 333
346 347 347 347 349 350 351 351 351 352 351 351 351 352 352 352 352 352 352 352 352 352 352 351 350 349 348 348 348 347 347 347 339 329 333 344 343 342 341 340 339 338 338 337 337 337 337 336 338 339 339 340 340 340 338 338 338 336 336 336 336 335 335 334 333 332 332 330 330 330 328 328 329 331 330 331 332 330 326 325 325 329 330 329 331
346 346 347 348 349 350 350 351 351 351 351 352 352 352 352 352 352 352 352 352 352 352 352 350 350 350 349 348 347 347 347 346 330 327 328 332 341 343 341 340 340 339 338 338 337 337 337 338 338 340 339 341 339 340 339 336 336 335 334 334 336 336 334 333 333 333 332 331 332 330 329 329 331 331 330 330 330 330 329 330 329 328 326 324 324
346 347 347 349 349 350 350 351 351 351 352 351 352 352 352 352 352 352 352 351 352 352 351 350 350 350 350 349 348 347 347 334 327 326 327 327 331 343 342 341 340 339 339 338 338 338 337 337 336 338 339 339 339 339 339 336 334 334 333 333 333 334 334 334 332 331 331 331 331 331 330 329 330 330 330 329 330 331 330 329 329 327 326 325 325
346 347 348 349 349 350 350 350 350 351 351 352 352 352 352 352 351 351 351 352 352 351 351 351 350 351 350 349 348 348 348 333 326 325 326 326 327 334 343 341 340 340 339 339 338 338 338 336 335 334 337 341 340 339 339 340 335 332 333 334 333 332 329 330 332 336 335 334 332 330 330 331 330 331 331 333 333 329 329 328 328 327 327 325 326
346 346 348 348 349 350 350 350 350 351 352 352 352 352 352 351 352 352 352 352 351 351 351 351 351 350 350 350 349 349 349 333 325 323 323 323 325 330 343 342 341 341 340 339 339 338 337 335 335 335 337 339 339 338 337 337 338 338 337 338 338 338 332 329 327 329 333 335 333 331 332 332 332 333 334 334 331 329 329 327 328 327 326 326 328
345 346 347 348 349 350 350 350 350 351 351 352 352 352 352 352 352 352 352 351 351 350 350 350 350 350 350 350 350 349 350 330 322 321 320 321 323 326 342 343 342 341 341 340 340 339 338 338 337 336 336 337 338 337 336 336 336 336 335 335 336 337 337 335 334 334 335 334 334 333 334 334 334 334 334 334 333 333 332 330 329 328 327 325 323
345 346 347 348 349 350 350 350 350 350 351 351 351 351 351 352 351 352 352 352 352 352 352 351 350 350 351 350 349 349 350 326 321 320 319 320 322 333 340 342 342 341 340 340 339 339 339 339 338 337 336 337 334 332 335 337 336 334 334 334 333 333 334 333 330 332 337 336 335 335 334 333 330 334 334 334 333 333 331 329 326 325 323 321 319
345 346 347 348 349 350 350 350 350 350 351 351 351 351 351 351 352 353 352 352 351 351 351 351 351 351 350 350 349 349 350 330 319 318 318 318 321 336 338 340 341 340 340 340 340 339 338 339 338 336 336 336 332 325 329 337 335 333 332 330 330 330 331 333 326 325 326 323 321 323 324 322 320 317 315 316 326 327 326 322 321 319 318 316 317
345 346 347 348 349 350 351 351 351 351 351 350 350 351 352 352 352 353 351 351 350 351 351 351 351 351 350 350 349 349 349 333 317 317 317 316 323 337 338 339 339 340 340 340 339 339 338 340 339 337 336 336 326 322 325 334 334 333 331 328 327 328 329 332 332 327 319 318 318 318 318 318 318 317 317 315 314 320 323 320 320 319 318 317 316
345 345 347 348 350 351 351 351 351 351 351 351 351 351 351 352 353 353 353 352 352 352 351 351 351 351 351 350 337 345 350 335 315 317 316 315 325 339 339 339 338 338 339 337 337 337 338 340 339 337 335 332 320 320 322 331 333 332 332 330 328 328 329 330 327 325 325 325 325 326 325 325 327 327 327 320 317 321 324 323 321 320 319 319 317
345 347 348 349 350 351 352 352 352 351 351 351 352 352 352 352 352 352 353 353 352 352 350 350 349 350 350 350 349 347 349 347 326 316 315 314 319 339 340 338 337 338 339 338 335 335 336 339 335 324 323 321 317 316 318 323 331 332 331 329 327 327 328 327 328 327 327 326 323 324 324 323 322 322 322 323 324 327 326 323 322 323 321 317 316
346 347 348 349 350 351 351 352 352 352 352 352 353 352 353 352 353 352 352 352 352 351 350 349 349 349 350 350 350 349 349 348 333 314 313 313 315 326 339 339 339 339 339 337 335 333 333 336 338 322 318 317 314 312 314 317 324 332 330 329 331 328 324 327 329 327 324 325 324 323 322 322 320 320 321 322 324 323 325 323 323 323 321 317 314
346 346 347 348 349 351 351 352 352 352 353 353 352 352 353 353 353 353 352 351 350 350 350 348 348 348 349 349 349 349 345 337 338 314 314 312 313 320 337 340 340 340 337 336 335 334 334 335 335 323 315 313 312 310 311 314 320 331 331 316 313 318 326 329 328 324 323 321 321 320 320 320 319 321 322 323 323 323 321 321 322 321 321 317 316
346 346 346 347 348 349 351 351 351 353 352 352 351 351 352 352 352 352 352 351 350 349 348 348 347 347 346 347 348 348 348 342 326 323 313 311 310 316 324 332 327 339 337 334 334 335 334 335 334 318 313 310 308 309 310 313 320 325 308 308 313 319 325 325 324 321 321 320 320 319 319 319 319 320 321 323 323 323 322 322 320 319 319 320 319
346 345 344 345 347 348 349 350 351 352 352 352 352 351 351 351 351 351 351 350 349 348 348 347 347 345 343 342 342 343 343 343 325 320 318 311 310 313 317 321 323 336 338 336 335 335 334 334 330 312 308 304 305 307 310 316 323 305 307 312 316 322 325 324 321 321 320 319 319 319 318 317 318 319 321 322 322 322 321 319 319 318 317 316 316
344 344 344 344 345 347 348 349 350 352 353 352 351 351 351 350 349 350 350 350 349 348 347 347 346 344 342 339 336 335 336 337 332 323 316 312 312 312 315 317 320 322 335 335 336 335 325 317 310 307 306 304 305 308 311 312 308 307 309 314 323 324 323 322 320 320 319 319 319 319 318 320 320 322 322 321 321 320 320 319 317 317 316 316 316
343 344 344 344 344 346 346 347 349 350 351 352 352 352 351 350 349 349 348 348 348 347 346 345 344 342 340 339 334 333 332 332 330 325 320 315 314 314 317 318 322 326 331 332 325 320 313 310 308 307 307 310 317 322 323 320 312 312 313 318 322 322 322 320 319 319 320 318 318 319 319 318 319 320 320 320 320 320 318 317 316 315 315 315 314
344 343 343 344 344 344 345 345 347 348 350 351 352 352 352 351 350 348 349 349 348 347 345 343 342 341 339 338 337 332 329 328 325 322 320 320 322 321 323 324 320 321 327 325 319 319 315 316 316 315 315 316 320 318 318 317 316 316 319 319 318 318 320 320 320 320 320 317 317 318 317 318 318 318 320 319 319 318 315 315 314 313 314 314 312
346 344 343 343 343 343 343 344 345 347 348 350 350 350 351 351 350 348 348 348 347 346 345 342 342 341 339 339 334 326 325 324 322 321 321 324 325 327 329 329 330 329 326 326 324 323 320 313 314 319 320 321 320 320 318 318 317 317 316 316 316 317 318 318 317 318 318 318 318 317 317 317 318 318 318 317 317 316 315 315 313 313 312 312 309
343 345 345 344 342 341 342 343 344 345 347 348 350 351 350 350 350 350 351 352 350 348 345 344 343 343 341 337 328 324 324 323 323 317 325 319 325 329 329 329 328 328 322 318 324 322 321 322 321 320 320 320 319 318 317 316 316 315 315 314 314 315 317 318 318 317 316 316 316 317 317 317 318 317 317 317 317 314 313 313 313 312 312 309 307
340 341 341 342 343 344 343 343 343 343 345 346 347 348 337 325 339 351 349 339 335 331 330 343 340 335 331 330 330 327 324 327 315 310 308 309 311 315 316 314 313 319 314 314 321 321 321 320 320 320 319 319 319 318 317 317 316 313 313 312 313 314 317 317 317 317 316 316 317 316 317 317 317 317 316 316 315 313 311 310 312 311 310 308 307
338 337 337 338 336 338 340 341 342 343 344 346 347 345 341 332 311 312 325 331 322 314 316 317 319 325 332 331 328 323 320 313 307 306 305 305 306 305 304 304 305 305 308 320 322 321 320 319 319 320 320 320 320 319 319 318 319 317 315 313 314 314 315 316 316 315 315 316 316 317 317 316 317 316 315 314 312 313 312 311 310 310 308 308 307
333 333 334 334 334 334 334 334 334 335 336 339 340 339 333 331 328 310 310 315 312 311 311 311 312 315 318 323 324 323 310 304 302 303 303 303 303 302 302 301 302 304 307 313 322 320 321 320 319 319 320 320 321 321 320 319 319 318 317 316 316 317 317 317 316 316 316 316 316 316 316 316 316 313 312 311 311 311 311 309 309 308 309 308 307
334 334 333 333 333 333 332 330 330 331 330 330 332 333 331 331 332 324 313 306 307 308 307 308 310 313 314 312 311 310 305 303 302 303 302 302 301 301 301 300 302 303 309 319 321 320 320 320 319 319 319 321 322 322 320 319 319 317 317 317 317 316 318 319 317 317 316 317 317 316 316 315 313 311 310 311 310 308 308 308 309 308 308 306 307
332 333 332 332 331 330 330 329 329 328 328 327 328 329 330 330 331 330 322 317 316 309 305 308 310 308 306 305 304 303 302 302 302 301 301 301 300 299 300 304 301 304 312 321 320 319 320 319 319 319 321 322 320 320 320 319 318 318 317 318 318 318 318 318 317 316 316 316 316 316 314 312 311 310 309 307 307 306 306 307 308 307 307 306 305
331 336 337 334 329 330 329 329 329 329 328 326 326 327 327 329 328 327 326 325 324 323 318 312 305 306 307 304 301 301 301 301 301 301 300 300 299 299 302 310 314 317 319 321 321 320 319 319 319 319 319 319 319 319 319 319 318 318 318 318 318 317 316 315 316 316 316 315 314 313 312 310 310 309 308 306 305 306 307 308 307 307 306 305 305
332 331 330 331 330 329 328 327 327 328 328 327 328 328 327 326 327 327 325 327 326 318 314 314 310 306 303 301 299 299 299 300 300 299 299 299 299 304 317 318 318 318 319 319 319 319 320 320 319 319 319 319 319 319 320 318 318 319 319 319 318 316 316 315 314 314 314 314 312 310 308 309 308 307 306 305 305 306 307 307 306 306 306 305 306
332 331 331 330 330 329 328 327 328 327 326 326 327 327 325 324 325 327 325 321 317 312 309 308 307 307 306 306 303 300 299 299 299 298 299 300 302 317 323 321 320 319 318 317 318 318 318 319 320 319 319 319 319 319 319 319 318 318 314 317 316 315 314 314 313 313 311 310 310 310 310 309 307 306 304 305 306 307 306 306 306 306 306 305 305
330 330 330 330 329 328 327 327 328 326 327 327 326 324 323 323 323 321 319 316 314 315 315 315 312 310 306 305 310 307 303 299 298 299 299 300 311 321 322 322 321 319 318 318 319 318 318 318 319 319 319 319 319 318 318 317 315 315 315 313 313 314 312 312 311 312 311 311 309 309 308 307 306 306 305 306 306 306 306 306 305 305 305 305 305
329 323 322 323 325 329 329 329 328 328 327 326 326 325 323 322 322 322 321 321 321 321 320 318 315 310 308 307 305 307 309 309 310 307 309 314 318 319 320 321 320 319 319 319 319 319 319 318 319 320 319 319 318 317 316 315 314 314 314 312 312 311 311 311 310 310 310 309 309 308 308 308 306 306 307 307 306 305 305 305 305 304 304 305 305
330 330 326 324 328 328 329 329 329 328 327 326 325 324 323 322 321 321 321 321 321 321 320 318 314 310 309 309 311 315 314 311 311 310 311 314 317 318 319 319 318 318 318 319 319 320 320 319 319 319 319 318 317 315 315 314 313 313 312 311 311 311 311 310 310 309 309 309 308 308 307 307 307 306 306 306 306 305 305 305 305 305 305 305 305
330 331 331 325 325 329 330 329 328 327 326 326 325 323 322 322 322 322 321 321 321 320 318 315 312 310 311 310 308 311 316 314 312 312 313 315 317 318 318 319 319 319 319 319 320 320 320 319 318 318 317 316 315 314 313 313 313 312 311 311 312 311 310 310 310 310 309 309 308 308 307 307 307 306 306 306 304 304 306 306 305 305 305 304 304
330 329 329 329 328 329 328 328 328 329 327 326 324 323 323 323 322 322 322 322 321 320 317 314 312 312 307 305 305 308 318 317 315 314 315 317 318 318 319 319 319 320 320 320 320 320 320 319 317 317 316 314 314 313 312 312 312 312 311 311 311 311 309 309 309 309 309 308 308 307 307 307 307 307 307 303 306 307 305 305 305 305 305 305 305
331 331 331 331 330 328 328 328 328 328 327 326 326 327 326 323 322 322 322 322 321 320 317 315 312 312 310 306 308 310 319 319 319 317 317 318 318 318 318 319 320 320 320 321 321 322 321 320 317 315 315 314 314 313 312 312 312 312 311 311 311 310 310 309 308 308 307 307 307 307 307 306 306 307 306 307 306 306 305 305 305 305 305 305 305
329 329 329 329 329 329 328 328 327 327 328 328 327 326 326 323 323 323 322 321 320 319 316 313 312 311 310 308 310 316 319 319 319 318 318 318 318 318 318 319 318 318 319 320 320 321 321 320 318 316 315 315 314 314 314 313 313 312 312 311 310 310 310 309 308 308 307 306 306 306 306 306 306 306 306 307 305 305 305 305 305 305 305 306 305
328 327 327 326 326 325 325 326 327 328 328 327 327 327 326 324 322 322 322 321 320 318 316 314 313 312 312 313 315 317 317 317 317 317 318 318 318 318 318 316 316 316 316 317 318 319 319 319 318 316 314 314 313 314 313 313 314 314 312 312 310 309 309 309 309 309 308 308 306 306 306 306 306 305 306 307 305 305 304 304 304 304 305 305 304
327 326 326 325 324 323 322 324 326 327 327 327 327 327 325 325 324 323 322 321 320 318 316 314 313 313 313 313 314 315 316 316 316 316 316 317 318 317 316 315 315 315 316 317 317 317 318 318 317 316 315 314 313 313 313 313 312 313 313 313 312 312 312 310 309 308 307 307 306 306 306 305 304 304 305 305 306 305 304 304 304 305 305 305 305
325 325 324 324 323 321 321 322 324 324 325 326 326 326 324 324 324 325 325 322 320 318 315 315 314 314 314 313 314 314 315 315 315 316 317 317 317 316 315 315 315 315 315 315 316 316 317 317 317 317 315 314 313 313 312 312 311 310 309 309 310 309 308 307 307 308 307 306 306 306 305 304 304 305 305 306 304 304 303 302 303 305 305 305 305
323 323 323 323 323 323 322 322 322 323 322 322 323 324 323 323 323 323 322 320 318 317 315 314 314 314 314 314 315 315 315 315 316 316 316 316 316 315 315 315 315 315 315 314 314 315 316 316 316 316 315 314 313 312 311 308 307 306 306 307 307 307 304 302 306 306 305 305 305 305 306 304 303 303 302 304 304 303 302 302 304 305 305 305 305
322 322 321 322 322 321 321 321 321 320 321 321 321 322 321 322 321 321 320 319 318 317 316 314 313 314 314 314 315 315 315 316 315 315 315 315 315 315 315 316 316 315 315 315 314 314 315 315 315 315 314 314 312 309 306 305 304 304 304 305 304 299 295 297 301 305 300 304 303 303 303 302 301 302 301 302 301 301 302 304 304 304 305 306 306
322 321 322 321 321 320 321 320 319 319 319 318 319 319 320 321 320 319 319 318 318 317 316 314 314 315 315 315 314 315 315 315 315 316 315 315 315 315 315 316 316 316 316 315 314 314 314 314 314 313 312 311 309 307 305 304 304 304 305 305 297 293 293 295 297 298 301 303 302 301 301 301 301 301 301 301 302 302 302 303 304 305 306 306 305
322 323 323 323 322 320 319 319 318 319 319 318 317 317 317 318 319 319 319 318 317 316 315 314 314 314 315 315 316 315 315 315 316 316 316 315 315 315 315 316 315 316 315 315 314 314 313 313 312 311 310 309 308 306 305 305 306 307 301 296 292 293 293 295 300 292 294 297 300 300 300 300 300 300 300 300 301 301 301 303 304 306 306 305 304
Wind_Speed
17 16 14 14 14 15 14 14 15 13 13 13 13 13 12 11 11 10 8 10 9 10 11 11 11 10 10 10 12 10 10 9 8 7 7 8 8 8 8 8 9 7 6 7 6 6 7 7 6 6 5 6 5 5 4 4 4 3 4 5 5 4 5 5 5 6 3 2 2 2 1 0 2 2 3 3 3 2 2 2 2 2 2 2 3
17 16 14 14 16 16 15 14 14 13 15 14 14 13 12 12 11 9 11 10 11 10 12 10 9 10 9 10 11 11 11 10 8 7 8 9 8 6 7 9 8 9 7 8 7 6 6 8 7 6 6 7 6 5 5 5 5 5 5 6 6 6 6 6 6 5 5 1 2 1 3 2 4 2 4 4 4 3 4 3 1 1 2 2 2
17 15 15 15 17 15 14 14 14 15 16 14 14 14 12 11 10 11 11 10 10 11 11 11 11 11 11 11 11 11 11 10 9 9 10 11 10 8 8 9 9 9 8 8 8 7 7 7 8 6 4 6 6 6 6 6 5 7 7 5 6 6 6 7 6 6 5 4 2 2 4 4 5 5 4 3 3 2 3 3 2 1 2 2 3
16 15 15 16 16 15 15 14 15 15 15 15 16 14 12 11 10 11 11 9 11 10 10 11 11 11 12 12 12 12 11 10 10 10 12 11 11 11 10 10 10 9 10 8 8 8 9 8 8 7 6 8 7 6 5 6 6 6 6 5 6 7 6 5 6 5 4 4 3 5 3 4 5 4 2 1 3 3 3 2 2 3 3 2 3
15 16 17 17 16 16 17 16 16 17 16 13 13 13 12 11 10 11 10 10 11 10 10 10 11 11 12 13 13 12 12 12 12 10 11 10 11 11 11 10 10 11 10 9 8 9 9 9 8 8 8 8 6 6 5 7 6 5 6 5 6 6 4 4 4 4 4 5 4 3 2 3 2 2 1 2 2 2 1 3 3 3 4 4 3
17 16 16 17 17 18 17 17 17 17 17 15 15 13 13 13 12 9 11 11 11 10 11 11 11 13 13 14 13 13 12 12 13 13 11 11 11 10 9 10 10 10 10 9 9 9 10 10 8 9 9 9 8 6 6 7 5 6 6 6 5 4 5 5 4 5 5 5 4 4 2 3 2 2 0 2 3 3 4 3 2 2 3 4 3
17 17 17 18 17 18 18 18 16 16 16 15 14 14 14 12 11 11 11 11 11 10 11 12 12 13 14 13 13 13 13 13 13 12 12 12 12 11 11 10 10 9 9 8 8 8 9 9 9 9 10 9 7 7 8 7 5 6 7 7 6 5 5 5 5 5 5 5 4 4 4 2 2 4 0 0 0 0 3 5 5 2 2 3 5
16 17 16 17 17 18 18 17 16 15 15 14 14 15 14 14 14 12 12 13 13 12 11 13 13 13 13 13 13 12 12 12 12 12 12 12 11 11 11 11 9 9 9 8 8 8 8 8 8 9 10 9 9 7 7 7 6 6 6 6 6 6 6 5 5 4 4 4 4 4 3 3 2 2 0 0 1 2 4 3 9 7 5 2 3
17 18 17 18 18 18 16 14 14 14 14 14 15 15 15 14 13 13 13 13 12 14 14 12 14 14 13 13 13 12 12 12 11 12 12 12 11 12 12 11 10 10 9 8 8 8 8 7 8 7 10 10 12 11 10 9 8 8 7 7 6 7 6 4 5 4 3 3 4 3 3 3 3 2 1 2 3 4 2 6 7 8 5 5 5
17 17 18 19 18 16 15 14 14 14 15 15 15 15 14 14 13 14 14 14 14 13 14 15 14 14 14 13 13 12 12 11 14 19 16 13 12 11 10 11 11 10 10 10 8 8 9 7 8 11 12 14 15 15 15 15 14 11 9 8 8 7 6 6 5 5 5 5 5 4 4 5 4 2 2 2 2 2 3 4 6 6 4 5 5
17 18 19 19 17 15 14 15 14 15 16 14 14 15 15 13 14 14 14 15 16 15 15 15 15 13 14 13 13 12 12 12 18 18 19 19 13 11 12 11 11 11 11 11 11 10 8 7 6 10 12 13 13 15 14 15 15 16 14 13 11 11 8 7 6 6 6 5 4 3 4 4 4 1 2 2 2 2 3 4 5 4 4 5 8
18 19 19 16 15 16 15 15 15 15 15 15 15 14 14 14 15 15 15 16 15 14 16 17 15 14 13 13 13 13 13 15 18 19 20 20 17 13 11 10 10 11 11 11 11 10 9 6 4 3 8 12 11 10 11 13 15 16 14 13 13 13 11 10 8 5 5 5 4 4 3 4 3 1 2 2 3 3 3 3 3 4 5 6 7
18 18 16 15 15 15 14 15 16 15 15 15 14 14 15 15 16 16 17 16 15 16 17 15 15 14 14 15 15 14 12 16 18 20 20 20 21 16 10 11 11 11 11 11 11 10 7 7 9 10 8 13 10 8 8 10 13 15 13 12 12 12 12 9 3 5 5 5 4 3 5 3 4 3 3 3 2 3 2 3 3 3 3 6 8
17 18 16 16 16 16 15 16 16 16 14 14 14 15 15 17 16 16 15 15 15 15 15 16 15 14 15 15 14 13 14 15 19 20 20 21 21 18 12 12 12 12 12 11 10 10 9 11 10 6 6 8 9 9 8 8 7 7 7 6 6 7 6 7 6 6 5 5 5 5 4 5 4 2 3 3 2 6 5 6 5 5 6 8 6
17 17 16 16 15 14 16 16 16 15 15 15 15 16 16 15 16 15 14 15 15 15 15 15 15 15 15 14 12 13 14 17 19 20 20 21 21 18 12 11 10 10 10 10 10 10 10 11 11 9 7 8 9 10 10 9 8 7 7 7 6 5 5 5 5 4 4 4 5 5 2 3 3 2 1 2 5 5 5 6 6 6 5 2 3
16 14 14 14 16 16 16 16 15 14 15 15 15 16 16 17 17 15 13 13 13 12 12 13 14 14 14 13 13 15 14 17 19 20 21 21 21 13 11 11 11 10 9 9 10 9 10 11 10 11 11 11 13 17 15 9 9 8 8 6 5 4 4 2 4 5 4 4 3 3 2 2 2 3 3 3 4 4 2 2 0 1 2 3 4
14 15 15 16 16 16 16 15 14 14 14 15 16 16 16 16 15 13 14 14 13 13 13 13 12 13 14 14 15 15 12 15 20 21 21 22 15 10 11 10 10 10 10 10 9 9 9 10 11 11 11 11 14 16 14 10 9 9 9 8 6 5 4 3 3 3 4 4 3 2 2 3 4 4 4 4 4 2 2 1 3 2 3 4 4
16 15 15 15 15 14 13 14 16 16 16 18 19 17 16 14 15 14 15 14 14 14 13 12 12 12 14 16 16 15 13 14 20 20 21 20 17 12 11 11 11 10 9 8 7 7 10 16 14 11 11 11 14 15 14 13 9 9 9 9 8 6 4 5 4 2 4 6 5 5 5 4 3 2 2 3 4 4 4 5 2 2 3 3 4
16 16 16 15 14 14 15 15 16 17 18 18 17 17 17 17 14 12 13 13 14 12 12 11 11 12 14 16 16 17 13 12 19 19 20 20 18 11 10 10 10 9 9 7 7 7 7 12 16 12 11 11 16 15 16 13 9 9 9 8 8 7 6 8 6 6 5 5 3 3 3 2 2 1 1 2 5 5 4 4 2 3 3 2 3
16 16 13 12 12 14 14 17 17 17 18 17 15 16 14 12 13 14 13 12 12 11 11 12 14 13 13 13 12 14 14 11 15 21 21 21 22 13 10 10 10 10 9 9 8 6 7 7 12 15 15 15 15 15 15 14 10 8 8 8 8 7 6 6 5 5 6 5 3 2 2 1 1 1 1 1 1 4 5 4 4 3 3 3 3
11 11 11 13 15 17 15 16 18 18 18 18 17 15 14 15 14 13 13 11 11 11 13 13 13 13 12 12 13 13 13 13 13 21 21 22 22 18 10 12 11 10 10 9 8 8 8 8 7 13 16 15 13 14 15 14 11 9 8 7 6 7 10 5 7 8 5 4 3 2 1 1 0 0 0 0 1 2 2 3 3 4 3 3 3
7 8 9 11 12 13 14 15 17 16 16 13 14 15 15 13 13 13 12 12 14 14 13 13 13 12 12 13 13 13 14 18 11 18 22 22 22 22 12 12 12 11 10 8 8 7 8 9 8 13 16 14 14 16 16 14 12 8 6 8 11 15 9 6 6 5 4 3 3 2 1 0 1 0 0 0 1 2 2 2 3 3 3 4 4
8 8 9 11 12 14 14 16 14 12 12 14 15 15 13 15 15 14 14 13 14 14 14 13 13 12 11 11 11 12 12 13 18 16 21 22 23 22 20 14 14 11 11 10 10 8 8 9 9 15 15 16 15 16 14 13 10 7 11 13 13 13 8 5 5 5 4 3 3 2 2 2 2 2 1 0 0 1 2 3 2 2 3 3 4
7 8 9 11 12 12 13 14 13 12 13 14 15 15 14 15 16 15 16 15 14 14 13 12 12 12 13 11 10 9 9 9 12 19 18 22 22 24 20 16 18 11 10 9 8 8 9 10 10 16 16 16 15 14 14 12 8 12 12 13 13 10 5 6 5 5 4 3 3 3 3 3 2 1 2 2 1 1 2 2 2 2 3 3 3
9 10 11 11 11 11 10 11 13 13 13 14 14 14 15 14 13 14 15 16 16 17 16 15 15 13 13 13 10 7 8 9 7 13 20 20 21 22 18 19 17 17 11 8 9 8 10 13 15 16 15 14 14 13 11 10 12 12 13 13 13 5 5 5 5 5 4 4 4 3 2 2 3 2 1 1 2 2 2 2 2 2 2 2 3
8 10 10 10 12 11 12 13 13 14 14 13 15 15 16 15 15 13 12 14 16 17 17 16 15 14 14 13 10 10 10 9 8 8 10 16 15 18 18 19 18 17 15 12 15 16 16 15 17 16 14 14 11 8 7 7 10 12 12 11 7 6 6 5 5 5 5 5 4 4 3 2 2 2 1 1 1 2 0 1 1 2 1 2 3
6 7 9 9 9 10 13 12 12 13 14 13 13 13 13 13 14 14 14 14 12 12 12 14 15 16 15 13 12 12 10 8 8 7 8 8 8 9 11 12 14 15 12 12 13 12 15 14 11 13 11 13 12 11 10 11 9 8 8 5 5 5 6 5 6 5 5 4 4 3 2 2 1 1 2 1 2 1 1 1 1 1 1 1 1
5 6 7 7 8 10 11 14 15 12 13 13 13 13 12 13 14 15 15 16 15 14 13 14 15 16 15 13 13 12 10 9 9 10 11 11 11 10 9 10 10 9 10 10 11 13 12 14 15 11 11 10 9 7 7 6 6 6 6 5 5 5 6 4 2 2 3 2 2 2 2 2 2 2 2 2 2 1 1 1 1 1 0 1 1
2 3 4 5 7 6 8 10 11 12 12 12 13 14 15 14 15 15 16 15 17 17 17 16 12 6 5 9 11 10 10 12 12 12 15 16 17 14 12 10 9 9 13 18 14 13 13 12 11 12 10 10 9 7 7 7 5 5 6 6 6 5 6 6 5 5 4 4 4 4 3 2 2 2 2 2 2 1 2 1 1 1 0 1 3
4 4 4 4 4 4 4 5 6 7 9 10 12 11 9 9 14 17 17 20 24 24 20 17 16 15 13 9 10 14 15 13 15 13 15 19 19 20 17 16 13 13 19 21 17 14 12 11 10 11 11 10 9 8 8 7 7 6 5 6 5 6 6 4 4 4 4 4 4 4 4 3 3 2 2 2 1 2 2 2 2 1 0 1 3
3 4 4 5 5 5 5 6 6 5 5 7 7 9 8 6 8 12 14 16 19 20 22 23 26 27 25 19 21 28 18 20 23 22 21 20 20 20 19 18 19 21 21 18 13 12 12 11 11 10 10 10 9 9 8 8 8 7 6 6 5 5 4 4 5 4 4 4 4 4 3 4 3 3 3 2 2 1 2 2 2 1 1 2 3
4 4 4 4 6 6 5 5 5 6 7 6 6 5 6 9 9 9 8 17 17 20 24 26 25 23 21 18 15 12 20 24 23 22 21 21 20 21 21 21 20 20 18 19 14 11 10 10 10 10 10 10 9 8 8 6 6 5 5 5 5 5 6 5 5 5 4 4 4 4 4 4 4 3 3 2 2 1 1 1 1 1 2 3 4
5 4 4 5 5 5 5 5 5 5 5 5 4 3 4 8 9 7 5 6 7 19 22 23 28 31 32 28 25 23 21 22 27 28 25 23 22 21 22 22 20 18 18 12 10 10 9 10 11 11 10 9 9 8 6 6 6 5 5 6 5 5 6 4 5 5 5 5 4 5 4 4 3 3 3 2 2 1 2 1 1 1 1 2 3
7 5 5 6 5 5 4 3 4 4 3 2 3 5 5 5 7 9 8 8 4 4 6 24 29 25 23 23 21 24 26 27 25 25 27 26 24 23 20 16 17 15 12 10 10 11 10 10 10 10 9 7 6 5 5 5 5 5 5 5 4 4 4 4 5 5 4 5 5 4 4 3 4 4 3 2 2 2 2 2 1 1 2 2 3
4 6 8 5 3 3 4 3 3 2 3 3 2 2 4 7 7 7 11 13 16 19 13 3 10 26 22 19 23 25 25 24 24 24 26 26 25 23 21 14 10 2 6 7 10 10 11 10 10 8 7 7 6 6 6 6 5 5 6 5 5 4 4 4 4 4 4 4 4 4 4 4 3 3 3 3 3 3 2 2 1 1 2 3 3
5 5 5 6 5 5 4 4 4 3 2 2 2 3 6 8 9 11 13 15 17 17 11 13 12 11 24 24 25 25 26 25 22 22 23 24 24 26 16 9 9 9 9 8 9 9 9 8 7 7 6 6 6 5 5 6 6 6 5 5 5 5 4 4 4 4 4 4 4 4 4 3 3 3 2 2 3 3 2 2 1 1 2 3 4
6 5 5 5 5 4 5 5 5 6 5 3 2 4 5 6 11 10 8 7 9 9 17 15 12 10 13 14 23 24 27 25 23 22 21 22 22 14 11 13 11 10 9 9 8 9 8 6 7 7 6 6 6 6 6 6 5 5 5 4 4 5 4 5 5 5 5 4 4 4 4 3 3 4 4 3 2 2 2 1 1 2 3 5 5
6 5 4 5 5 5 6 5 5 5 5 5 5 6 6 4 7 9 8 4 9 12 15 17 14 12 13 11 18 17 19 21 23 17 14 11 7 5 6 7 9 10 10 8 8 9 8 7 7 7 6 6 6 6 6 5 5 5 5 5 4 3 7 6 7 5 5 4 4 4 3 3 3 3 3 3 3 3 2 2 3 3 3 4 4
5 7 8 6 4 4 4 4 5 4 4 4 4 4 7 7 9 11 10 5 7 16 17 15 14 12 10 10 11 18 23 16 14 12 10 8 4 3 6 6 7 7 7 8 8 7 6 7 6 6 6 6 6 6 6 6 6 5 5 5 4 4 6 5 6 5 4 4 3 3 3 3 2 3 3 3 3 3 3 3 3 3 4 4 3
4 4 4 4 3 4 5 5 3 2 2 1 5 6 6 6 6 9 8 8 8 10 16 15 14 12 12 14 12 12 16 17 14 12 11 8 6 6 6 7 8 8 9 8 6 6 7 6 6 6 6 6 6 6 6 6 6 6 6 5 6 6 6 6 6 6 5 4 3 3 3 3 3 2 2 3 4 4 4 3 3 4 4 4 4
4 4 4 4 4 3 5 4 4 3 2 3 4 6 7 4 3 4 8 9 5 9 12 12 10 8 5 8 13 16 17 15 14 12 10 9 9 8 8 7 8 8 7 7 7 7 6 7 6 6 6 6 6 6 6 6 6 6 5 6 5 5 5 5 5 5 4 4 3 3 3 3 3 3 4 4 5 3 3 3 3 3 3 4 4
4 4 4 3 4 4 4 4 4 4 4 5 5 5 5 6 5 3 4 6 9 10 11 10 9 8 8 15 16 19 14 11 11 10 9 9 9 8 7 6 6 7 7 7 7 7 8 9 7 6 6 6 6 6 6 6 6 6 6 6 6 6 6 5 5 5 4 4 4 4 3 4 4 5 5 5 4 4 3 3 3 3 3 3 3
5 4 4 3 5 5 4 3 4 4 5 5 5 5 4 4 5 5 6 5 5 6 8 10 9 8 8 9 13 13 10 10 9 10 9 8 8 7 7 7 6 5 5 6 5 6 7 8 7 7 7 7 7 7 8 7 7 6 6 6 6 6 6 5 4 4 4 4 4 4 4 4 4 4 4 4 4 4 4 4 3 3 3 3 3
4 4 4 4 4 3 3 4 4 4 4 6 6 6 6 7 6 6 6 7 6 7 7 7 7 7 7 6 6 7 8 8 9 8 10 8 7 8 7 6 5 5 6 5 6 6 7 7 7 6 5 5 6 6 6 6 7 7 7 6 5 6 5 6 6 6 5 5 4 4 4 4 4 4 4 4 4 4 3 3 4 4 4 3 2
3 4 3 3 3 4 4 4 3 3 4 5 5 6 6 6 5 5 5 5 6 6 6 6 7 8 7 6 6 7 7 8 7 7 8 8 8 7 7 6 5 6 5 5 6 7 7 6 7 7 6 5 5 6 6 6 7 7 7 8 7 7 6 7 7 6 5 6 5 5 4 4 5 4 4 4 4 4 4 4 5 4 4 3 3
4 4 3 4 4 5 5 4 3 3 3 4 4 5 5 5 5 4 4 4 5 5 6 7 7 6 6 5 5 6 7 7 6 6 6 7 6 6 5 5 5 5 5 5 6 6 6 6 7 7 7 6 7 6 6 6 6 6 7 7 7 7 7 5 4 5 5 5 5 4 4 4 4 4 4 3 3 3 4 4 4 4 4 3 3
4 4 5 5 5 5 5 4 3 3 3 3 4 5 5 5 5 4 4 4 5 6 5 5 6 6 6 5 5 5 6 7 7 7 7 7 6 6 6 5 5 5 4 4 5 6 6 6 6 7 7 7 7 7 6 6 6 5 5 6 5 6 5 4 5 5 4 4 4 4 4 5 4 3 4 3 3 4 4 5 5 5 4 3 3
6 6 6 6 5 5 5 4 5 4 4 4 4 3 4 5 5 5 5 5 5 5 5 4 4 4 5 3 3 3 4 5 5 6 6 5 6 6 5 6 6 5 5 5 4 5 5 6 6 6 6 7 7 7 7 6 5 5 4 4 5 6 7 7 4 4 3 4 5 5 5 5 3 3 3 3 4 4 5 5 5 4 4 3 3
5 4 4 5 5 5 5 4 5 4 3 3 4 4 3 3 4 4 5 5 5 6 5 5 5 5 4 4 4 4 4 5 5 5 4 5 5 5 5 6 5 5 5 5 5 5 5 5 6 6 7 7 7 7 6 6 6 6 6 5 6 10 11 10 5 5 7 5 4 4 4 4 4 3 3 3 4 4 5 5 4 4 3 3 2
7 6 5 4 3 3 4 4 4 4 4 3 3 4 4 4 4 3 3 4 5 5 6 6 6 6 7 6 6 5 5 5 5 5 5 5 5 5 5 5 6 5 5 5 5 5 5 5 6 6 6 6 6 7 6 7 7 7 7 7 11 12 11 11 10 11 8 4 5 4 4 3 3 2 2 3 4 4 5 5 5 4 3 2 2
7 7 7 6 6 5 6 5 5 5 4 3 4 5 5 5 4 4 4 2 3 3 5 7 7 6 6 7 7 7 6 4 3 4 5 5 6 6 6 6 6 5 5 5 5 5 5 5 5 6 6 7 6 7 7 7 8 9 10 13 13 12 13 11 8 9 10 6 4 4 4 4 3 2 2 3 3 4 6 6 5 4 3 3 2
Wind_Direction
202 205 200 203 200 199 199 197 200 199 199 198 200 203 202 201 199 196 183 189 182 183 187 188 186 187 187 193 197 194 197 196 193 186 186 194 201 202 198 194 206 213 205 200 197 188 193 196 189 189 168 177 182 173 172 168 159 157 150 145 154 157 158 174 209 251 273 208 240 255 12 344 278 236 269 287 303 273 250 253 259 258 262 260 264
203 202 199 200 201 199 198 197 198 197 199 198 201 202 201 200 194 185 191 190 184 186 190 187 183 184 186 193 197 198 197 198 190 186 189 199 203 198 201 198 208 218 206 215 192 196 190 199 197 183 179 186 179 180 181 170 171 163 171 170 169 176 186 167 207 210 236 238 234 224 261 211 240 205 222 244 255 266 287 294 290 240 244 248 250
200 197 199 200 202 200 196 196 194 197 199 200 202 200 201 198 190 192 190 188 189 191 191 189 184 185 191 195 197 200 197 195 193 192 199 202 203 202 202 201 207 212 209 214 196 186 193 200 203 177 167 187 193 195 181 182 180 181 182 182 180 187 186 198 182 209 213 241 196 209 213 199 214 228 216 219 242 252 274 275 283 249 223 235 251
197 197 200 203 201 198 199 196 196 197 200 201 202 201 200 197 191 195 191 187 189 193 192 190 186 187 192 196 199 200 197 195 195 199 202 202 206 208 205 207 210 212 213 208 197 187 199 197 205 175 173 194 201 194 193 187 182 189 186 187 192 196 193 193 208 195 186 211 223 207 206 192 231 243 238 240 251 253 238 269 241 258 267 253 248
196 198 199 200 199 199 200 196 197 199 201 199 199 196 199 197 193 194 189 193 191 190 194 190 190 191 196 198 200 200 197 193 197 201 204 204 206 207 207 207 211 213 213 211 202 199 201 206 194 173 179 194 195 198 180 192 191 187 195 187 200 204 176 183 193 193 179 209 232 238 234 245 254 272 181 235 256 246 228 239 261 278 276 269 262
197 196 198 199 200 201 201 200 200 198 198 198 197 195 197 199 194 190 191 194 192 194 194 193 194 197 200 201 200 200 195 194 199 202 200 201 206 207 208 209 211 212 213 208 206 204 207 208 194 180 183 194 202 200 189 203 188 193 196 197 201 183 189 188 186 190 204 224 219 249 210 236 243 249 177 182 238 278 275 273 270 243 263 282 254
196 196 197 199 200 202 200 202 198 197 197 197 194 194 197 196 190 189 187 191 191 193 197 198 202 202 204 200 201 198 195 197 201 202 201 201 204 205 208 209 210 212 214 207 204 206 207 206 195 189 194 196 185 197 196 198 190 199 203 203 193 189 193 192 181 185 201 219 232 236 257 235 224 257 79 217 235 293 339 336 314 239 242 267 286
195 198 197 201 203 204 203 199 196 196 195 194 193 194 196 196 194 189 186 193 197 196 195 201 204 205 204 202 201 195 195 199 203 203 201 201 200 205 206 207 207 210 210 210 207 207 207 202 194 194 195 184 186 205 206 202 202 201 205 200 193 191 199 194 175 195 200 213 227 235 221 238 191 213 177 39 325 67 63 354 299 297 290 274 264
194 196 197 201 204 204 200 196 196 195 194 193 194 194 196 196 191 188 190 194 197 201 202 200 205 208 206 203 199 195 196 201 202 200 200 201 201 203 204 205 206 208 209 208 209 209 208 203 196 188 195 178 178 195 197 206 195 204 204 192 191 191 196 182 195 186 211 218 241 227 237 238 243 238 234 209 230 196 202 247 264 275 290 294 282
195 196 200 204 204 200 196 194 192 192 193 194 195 194 194 192 190 192 194 194 196 198 202 203 205 206 203 202 199 198 201 205 204 198 196 197 197 201 200 206 206 207 210 213 210 208 211 199 197 187 176 180 194 205 213 214 213 209 200 191 189 181 184 184 186 197 200 213 231 222 228 249 243 201 217 215 169 157 227 250 252 267 288 284 285
194 197 203 204 200 195 194 195 191 193 195 193 193 193 192 191 193 195 195 196 198 198 199 203 207 204 203 200 199 202 204 208 201 194 197 196 193 197 200 204 204 206 211 210 214 214 212 200 176 185 184 189 197 210 217 212 217 218 209 193 189 183 175 178 195 191 194 216 214 197 224 251 254 172 228 262 205 197 220 223 250 265 272 288 293
196 201 205 200 195 194 195 191 193 196 192 194 191 190 191 192 196 196 197 199 201 197 200 206 205 203 204 204 203 205 207 209 196 193 194 195 194 197 200 201 201 208 210 211 215 214 212 173 113 149 209 201 199 203 220 223 221 222 213 200 195 193 184 181 190 186 192 205 207 213 207 231 257 220 236 237 250 239 228 240 242 260 276 280 282
198 202 201 195 196 195 191 191 195 195 195 191 188 188 192 196 198 198 201 201 199 200 204 202 203 202 203 205 208 206 211 206 195 192 192 192 195 197 201 201 202 208 208 208 208 205 185 137 164 202 213 204 192 194 203 219 221 217 210 200 193 191 195 195 136 178 171 181 203 201 203 207 235 230 198 204 157 253 259 255 237 241 253 275 280
198 201 196 195 196 192 190 192 194 195 190 187 188 191 193 199 200 201 202 201 202 203 203 203 202 201 204 206 206 208 213 203 193 190 190 191 195 197 205 201 207 209 208 205 202 198 174 178 189 193 201 197 200 193 205 221 211 194 192 181 188 193 173 139 120 122 149 164 175 210 198 181 218 193 173 155 217 265 271 279 283 283 279 277 287
198 197 196 197 192 191 192 193 195 191 189 188 189 194 197 200 202 202 203 203 202 203 203 203 203 203 204 203 204 210 217 197 189 189 190 191 195 195 205 205 206 209 208 205 200 194 180 191 192 194 205 202 193 195 199 206 197 192 176 177 176 155 147 148 155 168 174 187 192 218 164 181 213 228 191 201 244 256 260 274 287 288 294 316 276
199 195 197 194 194 193 192 192 191 189 189 189 192 197 199 201 203 201 204 207 207 205 205 205 205 203 201 201 205 214 215 191 187 188 190 192 191 193 202 206 206 204 204 202 199 190 183 187 188 181 189 197 191 192 201 188 179 166 169 164 141 123 128 154 156 171 178 185 196 204 204 176 196 230 231 242 243 243 251 251 202 224 254 271 271
199 197 199 196 195 192 191 189 188 188 188 191 197 200 202 203 204 201 205 206 203 203 205 203 203 201 200 203 208 215 214 190 186 188 190 191 181 195 199 205 206 203 205 199 196 184 180 180 182 183 184 192 191 193 193 168 175 172 162 153 138 132 137 144 145 157 177 159 153 141 143 180 207 233 239 222 218 170 130 92 250 210 230 266 277
201 198 199 196 195 190 185 184 188 189 190 196 198 201 202 203 204 198 203 201 204 206 201 204 201 201 201 206 208 210 213 190 187 188 189 185 181 191 195 197 205 203 202 190 183 180 184 178 179 178 182 188 181 184 184 176 174 169 156 149 145 143 149 156 145 108 108 120 129 151 159 151 164 177 209 194 197 185 167 225 221 159 235 236 266
196 198 200 195 188 186 188 190 192 193 196 200 198 199 200 202 202 197 205 203 206 199 200 203 202 202 206 209 206 208 211 192 186 187 188 184 187 194 188 194 197 201 194 188 179 179 177 182 179 179 181 175 168 179 179 179 172 165 160 153 153 160 167 158 146 140 141 143 133 142 123 87 65 24 63 120 180 205 212 233 159 207 239 243 258
198 199 193 182 183 186 189 193 195 195 200 199 199 203 200 198 200 202 205 204 202 197 197 201 202 206 204 208 206 207 206 194 183 188 187 186 188 187 184 184 196 197 194 186 179 174 173 175 181 177 176 172 171 169 178 179 171 156 151 163 163 169 162 155 159 143 155 155 142 120 94 86 31 48 303 283 217 201 194 195 193 196 205 239 243
196 191 184 186 189 192 192 194 196 201 201 197 195 194 194 199 199 197 202 201 202 201 198 201 203 206 202 204 207 203 204 196 184 186 187 185 188 184 185 192 194 189 188 184 177 168 172 176 170 172 175 179 167 167 176 175 159 149 158 167 178 149 149 144 158 151 143 138 127 129 136 120 88 323 230 244 215 162 162 178 187 195 198 223 244
189 190 188 192 195 196 198 202 202 204 202 195 191 197 198 194 194 197 197 195 199 203 200 199 202 203 202 201 205 204 199 195 166 186 185 186 184 188 186 193 188 179 177 177 169 169 170 165 164 173 173 164 165 168 168 159 152 145 158 137 126 135 142 143 140 139 130 124 138 152 146 136 123 178 149 151 176 183 191 192 198 207 215 237 234
177 179 184 191 195 199 202 203 204 203 199 198 200 202 193 191 193 192 192 196 200 203 202 200 200 202 200 201 201 201 194 191 175 180 187 182 185 189 189 187 172 168 168 172 177 169 155 159 161 167 166 161 163 165 160 148 143 136 140 136 136 136 133 135 140 129 131 144 148 156 175 179 183 170 181 171 170 187 228 233 234 228 247 245 240
171 179 193 198 200 202 203 205 205 203 200 196 200 201 198 199 194 189 190 190 193 198 202 202 201 199 195 195 194 193 185 175 180 179 179 184 184 188 187 169 163 171 166 162 157 152 152 157 163 164 156 156 154 153 147 149 138 135 135 134 137 138 133 141 138 142 145 152 161 180 192 184 185 181 196 203 228 256 264 255 251 240 253 266 256
173 187 195 199 202 207 204 205 205 204 203 197 200 202 204 200 201 201 192 192 192 194 196 194 197 195 191 189 185 171 169 177 169 186 180 183 185 183 174 161 162 148 145 138 143 150 153 148 143 150 149 141 137 136 135 129 127 133 134 143 148 151 146 144 147 147 159 177 191 188 183 179 187 190 167 192 233 233 231 221 210 215 219 241 254
189 197 198 198 202 197 199 206 206 207 205 203 206 205 202 197 200 203 205 208 201 196 191 187 189 188 192 191 176 169 170 169 172 169 181 179 178 176 167 160 158 153 140 140 142 135 136 136 138 132 125 129 127 137 140 135 129 135 147 153 156 157 161 147 156 165 183 186 185 190 175 158 176 191 218 224 242 253 192 254 18 315 21 348 332
210 201 203 206 205 200 202 205 206 208 207 209 210 209 205 202 201 198 197 199 206 211 201 190 188 189 190 185 178 168 169 160 156 160 161 155 152 159 151 153 140 126 119 120 119 120 126 133 140 137 129 128 120 120 118 120 123 136 152 154 153 161 168 176 170 175 176 178 181 180 163 167 150 213 224 219 243 211 159 181 310 299 344 11 313
227 239 230 220 207 203 207 209 206 206 209 208 209 209 207 203 202 201 199 198 194 196 197 201 201 194 187 176 172 156 133 127 150 154 157 155 151 153 154 152 156 152 133 129 129 123 118 117 114 114 119 113 116 120 130 142 145 150 152 152 158 165 172 173 143 154 173 165 147 137 155 167 203 206 217 225 230 179 134 139 150 294 15 345 295
8 297 262 243 244 239 225 215 209 210 211 213 213 208 201 201 205 210 208 198 194 192 195 194 189 186 173 163 144 136 146 171 184 175 164 163 157 155 154 159 155 153 141 132 124 121 122 127 129 130 133 136 138 141 144 147 150 152 152 158 166 165 166 178 184 187 176 168 177 182 184 188 207 206 212 213 204 143 121 123 139 172 52 134 254
35 37 38 32 15 352 331 313 300 271 240 225 220 222 228 230 216 205 204 205 202 197 184 180 164 139 127 132 153 154 177 176 145 157 166 161 158 150 145 147 148 139 139 135 131 131 136 137 142 143 146 148 154 158 162 163 158 164 172 172 168 175 186 189 195 177 173 185 178 183 190 189 211 203 205 199 181 139 125 141 136 139 163 239 266
45 33 30 31 27 27 22 16 9 355 333 314 290 258 245 279 318 288 241 200 187 180 176 168 162 160 156 161 176 183 169 152 153 152 154 153 145 136 134 135 138 143 140 130 127 134 139 142 146 150 154 155 159 167 166 167 176 174 174 175 184 182 183 192 192 173 181 188 190 198 187 193 210 194 194 187 194 145 136 129 112 110 214 250 262
45 40 41 43 42 47 45 42 31 23 6 356 340 318 285 262 270 328 285 186 180 173 168 163 162 154 148 161 168 150 145 146 142 141 140 137 135 135 134 137 144 148 149 133 128 138 141 141 148 154 157 160 165 166 170 174 170 167 156 166 183 191 188 201 177 178 181 191 195 195 197 198 203 192 186 174 163 134 112 106 117 185 222 224 244
39 30 30 38 46 52 62 66 64 48 28 10 354 344 302 267 252 250 350 343 193 174 164 161 159 162 170 171 161 152 148 144 142 141 141 138 136 136 139 144 149 148 133 130 134 135 140 146 152 155 159 164 165 170 171 169 166 165 172 178 183 192 205 180 153 179 191 195 192 200 195 197 189 173 173 169 146 144 135 187 171 191 240 280 275
7 15 32 27 32 35 43 59 77 79 98 52 317 299 265 243 250 254 204 157 59 343 195 170 167 158 149 142 140 139 140 142 145 141 138 136 135 137 138 143 150 159 145 141 134 141 144 149 154 157 163 156 146 153 163 168 168 168 172 191 191 182 173 155 174 188 190 189 201 196 189 188 170 174 172 141 138 137 179 186 170 192 249 254 282
17 11 19 40 43 32 32 25 21 62 72 68 6 267 258 249 235 220 223 203 183 170 162 142 139 135 134 134 138 140 137 136 138 139 135 133 134 134 124 122 132 95 121 139 141 147 155 154 158 156 148 146 153 160 167 172 167 172 182 185 186 174 160 171 184 179 184 178 187 189 185 169 171 178 161 164 163 181 187 173 160 186 245 274 272
45 45 37 35 38 36 33 37 33 5 30 52 299 270 279 265 239 226 209 218 194 161 124 131 124 121 125 131 134 131 130 131 133 130 130 132 135 134 134 144 145 160 155 151 147 149 150 149 140 143 145 143 144 165 168 170 178 180 182 179 173 168 165 166 169 172 175 179 181 166 158 156 160 162 154 163 176 178 170 157 178 200 246 259 263
49 48 45 40 43 47 42 40 36 34 19 347 289 283 278 283 278 253 220 175 193 150 116 122 97 81 100 118 130 129 127 126 124 126 130 138 147 146 148 156 160 152 150 146 144 146 145 147 148 141 145 150 161 166 168 172 169 170 176 174 150 151 162 169 167 164 163 169 165 160 169 165 165 174 178 183 178 158 154 162 183 232 244 255 261
63 59 54 51 53 52 45 39 26 22 29 29 5 6 355 9 68 59 29 272 164 128 127 116 111 121 114 115 125 122 112 104 100 97 105 121 139 139 152 161 156 156 152 154 155 154 148 147 146 140 144 151 159 165 168 164 162 166 158 150 151 155 159 162 161 155 153 148 158 166 174 172 165 166 167 177 176 166 169 181 203 229 236 238 237
58 61 61 59 52 65 68 29 13 20 26 41 31 28 39 25 34 50 74 359 284 125 98 93 102 93 93 109 118 121 114 115 126 139 138 137 134 145 165 160 155 147 151 154 154 147 142 145 143 135 143 160 160 163 166 160 159 155 145 136 137 147 159 159 158 157 160 165 163 169 180 168 165 168 176 173 184 182 183 185 199 222 245 252 255
52 37 38 36 19 41 71 65 29 15 311 173 86 82 66 49 54 80 56 48 0 26 87 105 111 111 126 135 135 128 120 126 133 139 142 146 162 174 175 165 162 159 158 157 155 149 145 140 140 147 152 159 162 162 164 158 157 148 143 147 155 165 170 163 158 161 169 166 168 170 178 182 179 167 171 194 195 176 179 193 207 221 237 250 258
36 40 47 37 23 40 57 63 82 36 336 56 81 94 94 74 61 86 113 113 95 82 84 85 92 99 133 148 134 129 132 134 127 127 148 162 169 172 176 170 162 158 159 155 157 160 144 136 145 153 157 163 160 159 157 153 145 144 150 160 168 162 161 164 159 163 156 164 178 181 190 188 181 180 198 203 191 180 177 192 221 227 231 239 250
56 45 28 21 25 38 36 43 49 60 51 45 46 65 79 103 105 89 87 102 111 112 109 110 117 128 132 115 105 107 113 122 128 126 148 168 173 171 172 164 163 165 163 163 159 157 162 162 149 154 159 162 158 155 149 151 153 152 159 165 166 162 167 170 171 163 165 178 184 196 193 196 194 202 207 190 176 171 177 197 218 221 232 237 241
67 72 38 44 51 52 54 26 26 44 47 46 46 28 35 52 69 78 77 68 65 84 102 114 114 115 118 103 116 112 112 125 140 145 157 166 169 166 160 167 165 164 153 149 149 149 156 156 151 161 164 165 163 160 161 164 157 157 161 164 166 169 172 162 163 170 176 181 193 194 197 193 196 194 192 183 167 163 186 197 211 222 229 234 241
52 53 69 62 56 55 46 59 45 42 42 62 56 46 35 19 18 32 51 61 61 71 75 75 82 96 97 61 76 103 118 131 145 153 159 159 161 163 166 162 148 143 147 149 151 156 163 152 155 152 151 157 160 161 160 157 157 158 162 163 165 164 167 169 176 180 182 185 189 194 198 200 195 186 183 171 156 171 185 200 220 229 234 236 235
53 78 81 84 65 67 50 39 43 50 76 64 67 62 57 48 44 29 37 61 75 81 80 96 109 128 126 122 118 124 134 137 143 149 153 156 159 163 161 152 140 142 135 142 155 156 159 154 153 151 154 156 160 161 159 160 167 166 163 160 162 170 178 182 190 178 168 179 188 194 192 189 184 177 181 167 166 181 200 213 226 225 233 234 230
17 8 33 59 72 66 55 43 25 38 33 50 83 81 75 71 70 59 52 68 92 93 102 113 121 122 129 126 114 127 136 132 129 133 135 147 150 153 148 137 132 139 145 143 149 154 155 154 154 157 159 157 161 164 162 163 164 162 162 168 168 173 173 160 142 153 174 182 188 190 180 172 170 172 172 164 177 186 217 224 228 232 236 237 232
12 16 18 25 35 48 49 26 35 52 62 74 73 73 87 89 90 90 89 78 78 87 94 109 128 143 148 147 138 135 134 132 137 144 150 151 147 140 132 132 133 130 125 128 141 150 154 156 160 159 160 161 160 161 165 163 160 157 154 152 145 139 140 150 157 165 169 177 171 164 167 164 164 154 183 183 184 205 216 226 226 229 224 225 231
11 8 11 11 16 32 30 41 42 37 42 44 52 77 102 112 110 104 98 101 96 99 109 114 120 131 142 112 83 96 108 119 128 136 139 142 144 143 134 135 140 137 129 132 146 152 156 159 158 159 155 156 159 157 152 148 140 143 147 154 152 150 145 145 135 143 145 148 160 161 153 153 147 163 175 190 205 206 217 226 224 230 224 222 222
13 21 23 16 18 20 31 38 52 62 59 71 86 89 70 59 89 114 123 117 123 130 136 137 139 131 128 121 124 116 118 122 126 126 130 130 130 138 139 142 136 140 145 147 151 154 155 155 158 159 158 156 152 145 142 143 150 153 158 156 158 150 146 150 147 151 155 153 151 145 130 129 147 158 169 192 208 215 226 229 230 228 222 225 227
18 19 28 44 61 75 63 44 32 47 40 28 50 41 64 111 144 127 101 132 139 142 144 141 142 145 141 142 141 138 139 138 135 138 137 140 141 144 145 146 149 155 160 156 158 156 153 150 151 152 150 150 147 147 147 147 154 159 156 159 156 151 154 158 154 151 158 158 152 148 142 138 134 145 172 196 208 214 224 230 229 230 228 227 221
11 10 7 3 3 11 35 58 60 48 47 41 38 48 43 34 26 56 69 85 119 158 166 157 148 146 158 150 146 144 130 107 111 132 143 148 151 149 151 151 152 152 150 146 149 152 153 152 154 153 154 154 153 153 154 155 156 161 164 161 159 162 161 163 158 166 162 148 136 133 143 146 151 155 182 193 209 218 232 232 232 229 229 220 211